Location: Piotrkow Trybunalski
(51.4000°N, 19.6830°E)
Time: 01:09:17
(UTC+01:00)

A-11 Canister half - Pass Details

Date: 18 December 2023
Orbit: 1512 x 1687 km, 47.2° (Epoch: 23 February)

Event Time Altitude Azimuth Distance (km) Brightness Sun altitude
Exits shadow 04:27:00 12° 209° (SSW) 3,722 10.7 -28.9°
Drops below altitude 10° 04:28:21 10° 201° (SSW) 3,915 10.9 -28.7°
Sets 04:33:17 0° 182° (S) 4,918 11.7 -27.9°
